Weather History for LHDC - December, 2013

Change the Weather History Date:

Tuesday, December 3, 2013

  Actual Average Record
Temperature  
Mean Temperature 32 °F -  
Max Temperature 41 °F 37 °F - ()
Min Temperature 23 °F 26 °F - ()
Degree Days  
Heating Degree Days 33    
Moisture  
Dew Point 21 °F    
Average Humidity 61    
Maximum Humidity 80    
Minimum Humidity 34    
Precipitation  
Precipitation 0.00 in 0.06 in - ()
Sea Level Pressure  
Sea Level Pressure 30.58 in    
Wind  
Wind Speed 6 mph ()    
Max Wind Speed 9 mph    
Max Gust Speed -    
Visibility 17.5 miles    
Events      
T = Trace of Precipitation, MM = Missing Value Source: Averaged Metar Reports

Daily Weather History Graph

Daily Weather History Graph

Search for Another Location

Airport or City:

Trip Planner

Search our weather history database for the weather conditions in past years. The results will help you decide how hot, cold, wet, or windy it might be!

Date:

Astronomy

Dec. 03, 2013 Rise Set
Actual Time 7:02 AM CET 3:43 PM CET
Civil Twilight 6:27 AM CET 4:19 PM CET
Nautical Twilight 5:48 AM CET 4:57 PM CET
Astronomical Twilight 5:11 AM CET 5:34 PM CET
Moon 7:10 AM CET (12/3) 4:29 PM CET (12/3)
Length of Visible Light 9h 51m
Length of Day
8h 41m
New Moon, 0% of the Moon is Illuminated
Dec 3
New Moon
Dec 9
First Quarter
Dec 17
Full
Dec 25
Last Quarter
Jan 1
New

Hourly Weather History & Observations

Time (CET) Temp. Windchill Dew Point Humidity Pressure Visibility Wind Dir Wind Speed Gust Speed Precip Events Conditions
1:00 AM 33 °F - 23 °F 55% 30.62 in - NNE 8.9 mph - -  
5:15 AM 24.8 °F 16.1 °F 19.4 °F 80% 30.60 in - NE 8.1 mph - N/A   Clear
5:45 AM 23.0 °F 13.9 °F 17.6 °F 80% 30.60 in - NE 8.1 mph - N/A   Clear
6:00 AM - - - N/A% - - NE 9.2 mph - N/A   Clear
6:15 AM 24.8 °F 17.9 °F 17.6 °F 74% 30.60 in - NNE 5.8 mph - N/A   Clear
6:45 AM 26.6 °F 20.0 °F 19.4 °F 74% 30.60 in - NNE 5.8 mph - N/A   Clear
7:00 AM 26 °F - 19 °F 66% 30.63 in 16 mi NNE 6.7 mph - -   Partly Cloudy
7:15 AM 24.8 °F 17.9 °F 17.6 °F 74% 30.60 in - NE 5.8 mph - N/A   Clear
7:45 AM 26.6 °F 18.2 °F 19.4 °F 74% 30.60 in - NE 8.1 mph - N/A   Clear
8:15 AM 28.4 °F 20.4 °F 21.2 °F 74% 30.60 in - NNE 8.1 mph - N/A   Clear
8:45 AM 30.2 °F 22.6 °F 21.2 °F 69% 30.60 in - NE 8.1 mph - N/A   Clear
9:00 AM - - - N/A% - - NE 9.2 mph - N/A   Clear
9:15 AM 32.0 °F 24.8 °F 21.2 °F 64% 30.60 in - ENE 8.1 mph - N/A   Clear
9:45 AM 33.8 °F 27.0 °F 21.2 °F 60% 30.60 in - ENE 8.1 mph - N/A   Clear
10:15 AM 35.6 °F 29.2 °F 21.2 °F 56% 30.60 in - NE 8.1 mph - N/A   Clear
10:45 AM 37.4 °F 32.8 °F 21.2 °F 52% 30.60 in - ENE 5.8 mph - N/A   Clear
11:15 AM 37.4 °F 33.8 °F 21.2 °F 52% 30.57 in - ENE 4.6 mph - N/A   Clear
11:45 AM 39.2 °F 35.9 °F 21.2 °F 49% 30.57 in - ENE 4.6 mph - N/A   Clear
12:00 PM - - - N/A% - - Variable 3.5 mph - N/A   Clear
12:15 PM 39.2 °F 37.0 °F 21.2 °F 49% 30.57 in - East 3.5 mph - N/A   Clear
12:45 PM 39.2 °F 37.0 °F 21.2 °F 49% 30.57 in - ENE 3.5 mph - N/A   Clear
1:00 PM 40 °F - 22 °F 34% 30.57 in 19 mi ENE 4.5 mph - -   Partly Cloudy
1:15 PM 41.0 °F - 21.2 °F 45% 30.54 in - NNE 1.2 mph - N/A   Clear
1:45 PM 41.0 °F - 19.4 °F 42% 30.54 in - ESE 2.3 mph - N/A   Clear
2:15 PM 41.0 °F - 19.4 °F 42% 30.54 in - Calm Calm - N/A   Clear
2:45 PM 41.0 °F - 21.2 °F 45% 30.54 in - South 2.3 mph - N/A   Clear
3:15 PM 37.4 °F 33.8 °F 24.8 °F 60% 30.54 in - SSW 4.6 mph - N/A   Clear
3:45 PM 35.6 °F 31.7 °F 24.8 °F 65% 30.54 in - South 4.6 mph - N/A   Clear
4:15 PM 32.0 °F 27.5 °F 23.0 °F 69% 30.54 in - South 4.6 mph - N/A   Clear
4:45 PM 30.2 °F - 23.0 °F 75% 30.51 in - South 2.3 mph - N/A   Clear
5:00 PM - - - N/A% - - North - - N/A   Unknown
7:00 PM 27 °F - 22 °F 74% 30.54 in - Calm Calm - -